Flag for Tunisia Weather past 2 weeks in Sfax, Tunisia

Now
81 °F

Passing clouds.


Feels Like: 86 °F
Forecast: 79 / 90 °F
Wind: 9 mph from Northeast

Location: Sfax El-Maou

Current Time: Sep 17, 2014 at 9:09:25 AM

Latest Report: Sep 17, 2014 at 8:00 AM


Visibility: 5 mi

Pressure: 29.86 "Hg

Humidity: 84%

Dew point: 75 °F

Location of SfaxLocation

Historic Weather in Sfax — Graph

°F

Sfax temperature yesterday

Maximum temperature yesterday: 97 °F (at 1:00 PM)
Minimum temperature yesterday: 81 °F (at 6:00 AM)
Average temperature yesterday: 88 °F

Past Weeks' High & Low Weather Summary

 TemperatureHumidityPressure
High97 °F (Sep 16, 1:00 PM)94% (Sep 12, 6:00 AM)30.04 "Hg (Sep 12, 6:00 AM)
Low68 °F (Sep 3, 6:00 AM)21% (Sep 2, 2:00 PM)29.77 "Hg (Sep 2, 4:00 PM)
Average82 °F63%29.92 "Hg
* Reported Sep 2 8:00 AM — Sep 17 8:00 AM, Sfax, Weather by CustomWeather, © 2014

Note: Actual official high and low records may vary slightly from our data, if they occured in-between our weather recording intervals... More about our weather records

Advertising

Sfax weather history for previous 24 hours

 ConditionsComfort  
Time TempWeatherWind HumidityBarometerVisibility
8:00 AM
Sep 17
81 °FPassing clouds.9 mph84%29.86 "Hg5 mi
7:00 AM77 °FPassing clouds.9 mph94%29.89 "Hg5 mi
6:00 AM79 °FPassing clouds.8 mph84%29.86 "HgN/A
5:00 AM79 °FPassing clouds.8 mph65%29.86 "HgN/A
4:00 AM79 °FPassing clouds.7 mph58%29.86 "HgN/A
3:00 AM81 °FPassing clouds.8 mph54%29.86 "HgN/A
12:00 AM82 °FPassing clouds.3 mph74%29.86 "HgN/A
11:00 PM
Sep 16
82 °FPassing clouds.3 mph70%29.83 "HgN/A
10:00 PM86 °FPassing clouds.6 mph66%29.83 "HgN/A
9:00 PM86 °FPassing clouds.8 mph62%29.86 "HgN/A
8:00 PM88 °FPassing clouds.6 mph55%29.86 "HgN/A
7:00 PM88 °FPassing clouds.3 mph59%29.83 "HgN/A
6:00 PM88 °FPassing clouds.6 mph55%29.80 "HgN/A
5:00 PM91 °FPassing clouds.9 mph46%29.80 "HgN/A
4:00 PM91 °FPassing clouds.8 mph46%29.80 "HgN/A
3:00 PM95 °FPassing clouds.12 mph36%29.83 "HgN/A
2:00 PM97 °FPassing clouds.15 mph28%29.86 "HgN/A
1:00 PM97 °FPassing clouds.12 mph30%29.86 "HgN/A
12:00 PM95 °FScattered clouds.13 mph32%29.89 "HgN/A
11:00 AM93 °FScattered clouds.12 mph36%29.92 "HgN/A
10:00 AM91 °FScattered clouds.3 mph44%29.92 "HgN/A
9:00 AM90 °FScattered clouds.6 mph46%29.92 "HgN/A
Weather by CustomWeather, © 2014

See weather overviewHow to use our weather pages